<?xml version="1.0" encoding="UTF-8" standalone="no" ?>
<gpx xmlns="http://www.topografix.com/GPX/1/1" xmlns:xsi="http://www.w3.org/2001/XMLSchema-instance" xsi:schemaLocation="http://www.topografix.com/GPX/1/1 http://www.topografix.com/GPX/1/1/gpx.xsd" version="1.1" creator="VisuGPX - https://www.visugpx.com">
  <metadata>
    <name>Trail du buis 10km</name>
    <desc><![CDATA[grp_trc:]]></desc>
  </metadata>
  <trk>
    <name><![CDATA[Trail du buis 10km]]></name>
    <cmt><![CDATA[]]></cmt>
    <desc><![CDATA[comment ...]]></desc>
    <trkseg>
      <trkpt lat="45.33248" lon="5.61641">
        <ele>196</ele>
        <time>2021-07-05T11:55:10Z</time>
      </trkpt>
      <trkpt lat="45.33227" lon="5.61619">
        <ele>196</ele>
        <time>2021-07-05T11:55:10Z</time>
      </trkpt>
      <trkpt lat="45.33222" lon="5.61605">
        <ele>195</ele>
        <time>2021-07-05T11:55:10Z</time>
      </trkpt>
      <trkpt lat="45.3322" lon="5.61592">
        <ele>195</ele>
        <time>2021-07-05T11:55:10Z</time>
      </trkpt>
      <trkpt lat="45.33221" lon="5.6154">
        <ele>195</ele>
        <time>2021-07-05T11:55:10Z</time>
      </trkpt>
      <trkpt lat="45.33178" lon="5.61371">
        <ele>195</ele>
        <time>2021-07-05T11:55:10Z</time>
      </trkpt>
      <trkpt lat="45.33152" lon="5.61335">
        <ele>194</ele>
        <time>2021-07-05T11:55:10Z</time>
      </trkpt>
      <trkpt lat="45.33141" lon="5.6131">
        <ele>194</ele>
        <time>2021-07-05T11:55:10Z</time>
      </trkpt>
      <trkpt lat="45.33139" lon="5.61293">
        <ele>194</ele>
        <time>2021-07-05T11:55:10Z</time>
      </trkpt>
      <trkpt lat="45.33148" lon="5.61255">
        <ele>194</ele>
        <time>2021-07-05T11:55:10Z</time>
      </trkpt>
      <trkpt lat="45.33148" lon="5.61255">
        <ele>194</ele>
        <time>2021-07-05T11:55:10Z</time>
      </trkpt>
      <trkpt lat="45.33148" lon="5.61244">
        <ele>194</ele>
        <time>2021-07-05T11:55:10Z</time>
      </trkpt>
      <trkpt lat="45.33144" lon="5.61233">
        <ele>194</ele>
        <time>2021-07-05T11:55:10Z</time>
      </trkpt>
      <trkpt lat="45.33146" lon="5.61081">
        <ele>194</ele>
        <time>2021-07-05T11:55:10Z</time>
      </trkpt>
      <trkpt lat="45.33179" lon="5.60747">
        <ele>195</ele>
        <time>2021-07-05T11:55:10Z</time>
      </trkpt>
      <trkpt lat="45.33303" lon="5.60755">
        <ele>195</ele>
        <time>2021-07-05T11:55:10Z</time>
      </trkpt>
      <trkpt lat="45.33313" lon="5.60761">
        <ele>195</ele>
        <time>2021-07-05T11:55:10Z</time>
      </trkpt>
      <trkpt lat="45.33329" lon="5.60777">
        <ele>195</ele>
        <time>2021-07-05T11:55:10Z</time>
      </trkpt>
      <trkpt lat="45.3343" lon="5.60766">
        <ele>196</ele>
        <time>2021-07-05T11:55:10Z</time>
      </trkpt>
      <trkpt lat="45.33438" lon="5.60761">
        <ele>196</ele>
        <time>2021-07-05T11:55:10Z</time>
      </trkpt>
      <trkpt lat="45.33448" lon="5.60695">
        <ele>196</ele>
        <time>2021-07-05T11:55:10Z</time>
      </trkpt>
      <trkpt lat="45.33452" lon="5.60686">
        <ele>196</ele>
        <time>2021-07-05T11:55:10Z</time>
      </trkpt>
      <trkpt lat="45.33507" lon="5.60688">
        <ele>197</ele>
        <time>2021-07-05T11:55:10Z</time>
      </trkpt>
      <trkpt lat="45.33513" lon="5.60679">
        <ele>197</ele>
        <time>2021-07-05T11:55:10Z</time>
      </trkpt>
      <trkpt lat="45.33514" lon="5.60594">
        <ele>197</ele>
        <time>2021-07-05T11:55:10Z</time>
      </trkpt>
      <trkpt lat="45.33632" lon="5.60586">
        <ele>198</ele>
        <time>2021-07-05T11:55:10Z</time>
      </trkpt>
      <trkpt lat="45.33737" lon="5.60606">
        <ele>198</ele>
        <time>2021-07-05T11:55:10Z</time>
      </trkpt>
      <trkpt lat="45.33984" lon="5.60578">
        <ele>202</ele>
        <time>2021-07-05T11:55:10Z</time>
      </trkpt>
      <trkpt lat="45.33984" lon="5.60578">
        <ele>206</ele>
        <time>2021-07-05T11:55:10Z</time>
      </trkpt>
      <trkpt lat="45.33862" lon="5.61152">
        <ele>203</ele>
        <time>2021-07-05T11:55:10Z</time>
      </trkpt>
      <trkpt lat="45.33683" lon="5.61726">
        <ele>201</ele>
        <time>2021-07-05T11:55:10Z</time>
      </trkpt>
      <trkpt lat="45.33586" lon="5.61643">
        <ele>200</ele>
        <time>2021-07-05T11:55:10Z</time>
      </trkpt>
      <trkpt lat="45.33573" lon="5.61637">
        <ele>200</ele>
        <time>2021-07-05T11:55:10Z</time>
      </trkpt>
      <trkpt lat="45.33563" lon="5.61642">
        <ele>199</ele>
        <time>2021-07-05T11:55:10Z</time>
      </trkpt>
      <trkpt lat="45.33549" lon="5.61664">
        <ele>199</ele>
        <time>2021-07-05T11:55:10Z</time>
      </trkpt>
      <trkpt lat="45.33547" lon="5.61677">
        <ele>199</ele>
        <time>2021-07-05T11:55:10Z</time>
      </trkpt>
      <trkpt lat="45.33536" lon="5.61701">
        <ele>199</ele>
        <time>2021-07-05T11:55:10Z</time>
      </trkpt>
      <trkpt lat="45.33501" lon="5.61892">
        <ele>199</ele>
        <time>2021-07-05T11:55:10Z</time>
      </trkpt>
      <trkpt lat="45.335" lon="5.61912">
        <ele>199</ele>
        <time>2021-07-05T11:55:10Z</time>
      </trkpt>
      <trkpt lat="45.335" lon="5.61912">
        <ele>200</ele>
        <time>2021-07-05T11:55:10Z</time>
      </trkpt>
      <trkpt lat="45.33501" lon="5.61976">
        <ele>200</ele>
        <time>2021-07-05T11:55:10Z</time>
      </trkpt>
      <trkpt lat="45.3349" lon="5.62017">
        <ele>200</ele>
        <time>2021-07-05T11:55:10Z</time>
      </trkpt>
      <trkpt lat="45.3348" lon="5.62031">
        <ele>200</ele>
        <time>2021-07-05T11:55:10Z</time>
      </trkpt>
      <trkpt lat="45.33471" lon="5.62034">
        <ele>201</ele>
        <time>2021-07-05T11:55:10Z</time>
      </trkpt>
      <trkpt lat="45.33452" lon="5.62027">
        <ele>201</ele>
        <time>2021-07-05T11:55:10Z</time>
      </trkpt>
      <trkpt lat="45.33448" lon="5.62113">
        <ele>201</ele>
        <time>2021-07-05T11:55:10Z</time>
      </trkpt>
      <trkpt lat="45.33458" lon="5.62126">
        <ele>202</ele>
        <time>2021-07-05T11:55:10Z</time>
      </trkpt>
      <trkpt lat="45.3347" lon="5.62151">
        <ele>203</ele>
        <time>2021-07-05T11:55:10Z</time>
      </trkpt>
      <trkpt lat="45.3347" lon="5.62151">
        <ele>205</ele>
        <time>2021-07-05T11:55:10Z</time>
      </trkpt>
      <trkpt lat="45.33486" lon="5.62174">
        <ele>206</ele>
        <time>2021-07-05T11:55:10Z</time>
      </trkpt>
      <trkpt lat="45.33485" lon="5.62215">
        <ele>207</ele>
        <time>2021-07-05T11:55:10Z</time>
      </trkpt>
      <trkpt lat="45.335" lon="5.62227">
        <ele>209</ele>
        <time>2021-07-05T11:55:10Z</time>
      </trkpt>
      <trkpt lat="45.33513" lon="5.62228">
        <ele>210</ele>
        <time>2021-07-05T11:55:10Z</time>
      </trkpt>
      <trkpt lat="45.3352" lon="5.62271">
        <ele>213</ele>
        <time>2021-07-05T11:55:10Z</time>
      </trkpt>
      <trkpt lat="45.33554" lon="5.62289">
        <ele>215</ele>
        <time>2021-07-05T11:55:10Z</time>
      </trkpt>
      <trkpt lat="45.33554" lon="5.62289">
        <ele>223</ele>
        <time>2021-07-05T11:55:10Z</time>
      </trkpt>
      <trkpt lat="45.33539" lon="5.62344">
        <ele>223</ele>
        <time>2021-07-05T11:55:10Z</time>
      </trkpt>
      <trkpt lat="45.33533" lon="5.62354">
        <ele>224</ele>
        <time>2021-07-05T11:55:10Z</time>
      </trkpt>
      <trkpt lat="45.33523" lon="5.62364">
        <ele>224</ele>
        <time>2021-07-05T11:55:10Z</time>
      </trkpt>
      <trkpt lat="45.33519" lon="5.62383">
        <ele>224</ele>
        <time>2021-07-05T11:55:10Z</time>
      </trkpt>
      <trkpt lat="45.3352" lon="5.62407">
        <ele>225</ele>
        <time>2021-07-05T11:55:10Z</time>
      </trkpt>
      <trkpt lat="45.33526" lon="5.62429">
        <ele>225</ele>
        <time>2021-07-05T11:55:10Z</time>
      </trkpt>
      <trkpt lat="45.33529" lon="5.62447">
        <ele>226</ele>
        <time>2021-07-05T11:55:10Z</time>
      </trkpt>
      <trkpt lat="45.33545" lon="5.62489">
        <ele>227</ele>
        <time>2021-07-05T11:55:10Z</time>
      </trkpt>
      <trkpt lat="45.33544" lon="5.62552">
        <ele>239</ele>
        <time>2021-07-05T11:55:10Z</time>
      </trkpt>
      <trkpt lat="45.33511" lon="5.6259">
        <ele>251</ele>
        <time>2021-07-05T11:55:10Z</time>
      </trkpt>
      <trkpt lat="45.33506" lon="5.62608">
        <ele>260</ele>
        <time>2021-07-05T11:55:10Z</time>
      </trkpt>
      <trkpt lat="45.33504" lon="5.62626">
        <ele>268</ele>
        <time>2021-07-05T11:55:10Z</time>
      </trkpt>
      <trkpt lat="45.33532" lon="5.62632">
        <ele>275</ele>
        <time>2021-07-05T11:55:10Z</time>
      </trkpt>
      <trkpt lat="45.33535" lon="5.6265">
        <ele>282</ele>
        <time>2021-07-05T11:55:10Z</time>
      </trkpt>
      <trkpt lat="45.3348" lon="5.62726">
        <ele>292</ele>
        <time>2021-07-05T11:55:10Z</time>
      </trkpt>
      <trkpt lat="45.33493" lon="5.62737">
        <ele>301</ele>
        <time>2021-07-05T11:55:10Z</time>
      </trkpt>
      <trkpt lat="45.33502" lon="5.6276">
        <ele>310</ele>
        <time>2021-07-05T11:55:10Z</time>
      </trkpt>
      <trkpt lat="45.33487" lon="5.62803">
        <ele>320</ele>
        <time>2021-07-05T11:55:10Z</time>
      </trkpt>
      <trkpt lat="45.33486" lon="5.62826">
        <ele>327</ele>
        <time>2021-07-05T11:55:10Z</time>
      </trkpt>
      <trkpt lat="45.33485" lon="5.62829">
        <ele>332</ele>
        <time>2021-07-05T11:55:10Z</time>
      </trkpt>
      <trkpt lat="45.33501" lon="5.62843">
        <ele>338</ele>
        <time>2021-07-05T11:55:10Z</time>
      </trkpt>
      <trkpt lat="45.33516" lon="5.62848">
        <ele>344</ele>
        <time>2021-07-05T11:55:10Z</time>
      </trkpt>
      <trkpt lat="45.33546" lon="5.62849">
        <ele>351</ele>
        <time>2021-07-05T11:55:10Z</time>
      </trkpt>
      <trkpt lat="45.33548" lon="5.62858">
        <ele>357</ele>
        <time>2021-07-05T11:55:10Z</time>
      </trkpt>
      <trkpt lat="45.33548" lon="5.62858">
        <ele>388</ele>
        <time>2021-07-05T11:55:10Z</time>
      </trkpt>
      <trkpt lat="45.33544" lon="5.62869">
        <ele>388</ele>
        <time>2021-07-05T11:55:10Z</time>
      </trkpt>
      <trkpt lat="45.33556" lon="5.62867">
        <ele>388</ele>
        <time>2021-07-05T11:55:10Z</time>
      </trkpt>
      <trkpt lat="45.33729" lon="5.62947">
        <ele>390</ele>
        <time>2021-07-05T11:55:10Z</time>
      </trkpt>
      <trkpt lat="45.33741" lon="5.62944">
        <ele>392</ele>
        <time>2021-07-05T11:55:10Z</time>
      </trkpt>
      <trkpt lat="45.33774" lon="5.6292">
        <ele>393</ele>
        <time>2021-07-05T11:55:10Z</time>
      </trkpt>
      <trkpt lat="45.33782" lon="5.62922">
        <ele>395</ele>
        <time>2021-07-05T11:55:10Z</time>
      </trkpt>
      <trkpt lat="45.33793" lon="5.62937">
        <ele>396</ele>
        <time>2021-07-05T11:55:10Z</time>
      </trkpt>
      <trkpt lat="45.338" lon="5.62943">
        <ele>397</ele>
        <time>2021-07-05T11:55:10Z</time>
      </trkpt>
      <trkpt lat="45.338" lon="5.62943">
        <ele>402</ele>
        <time>2021-07-05T11:55:10Z</time>
      </trkpt>
      <trkpt lat="45.33818" lon="5.62965">
        <ele>402</ele>
        <time>2021-07-05T11:55:10Z</time>
      </trkpt>
      <trkpt lat="45.33852" lon="5.62966">
        <ele>401</ele>
        <time>2021-07-05T11:55:10Z</time>
      </trkpt>
      <trkpt lat="45.33872" lon="5.62955">
        <ele>399</ele>
        <time>2021-07-05T11:55:10Z</time>
      </trkpt>
      <trkpt lat="45.33932" lon="5.62911">
        <ele>395</ele>
        <time>2021-07-05T11:55:10Z</time>
      </trkpt>
      <trkpt lat="45.3398" lon="5.62882">
        <ele>392</ele>
        <time>2021-07-05T11:55:10Z</time>
      </trkpt>
      <trkpt lat="45.34005" lon="5.62858">
        <ele>389</ele>
        <time>2021-07-05T11:55:10Z</time>
      </trkpt>
      <trkpt lat="45.34029" lon="5.62858">
        <ele>389</ele>
        <time>2021-07-05T11:55:10Z</time>
      </trkpt>
      <trkpt lat="45.34038" lon="5.62868">
        <ele>389</ele>
        <time>2021-07-05T11:55:10Z</time>
      </trkpt>
      <trkpt lat="45.34051" lon="5.62867">
        <ele>390</ele>
        <time>2021-07-05T11:55:10Z</time>
      </trkpt>
      <trkpt lat="45.34051" lon="5.62867">
        <ele>393</ele>
        <time>2021-07-05T11:55:10Z</time>
      </trkpt>
      <trkpt lat="45.34058" lon="5.62872">
        <ele>396</ele>
        <time>2021-07-05T11:55:10Z</time>
      </trkpt>
      <trkpt lat="45.34068" lon="5.62899">
        <ele>397</ele>
        <time>2021-07-05T11:55:10Z</time>
      </trkpt>
      <trkpt lat="45.34078" lon="5.62911">
        <ele>399</ele>
        <time>2021-07-05T11:55:10Z</time>
      </trkpt>
      <trkpt lat="45.34087" lon="5.62917">
        <ele>400</ele>
        <time>2021-07-05T11:55:10Z</time>
      </trkpt>
      <trkpt lat="45.34099" lon="5.62915">
        <ele>402</ele>
        <time>2021-07-05T11:55:10Z</time>
      </trkpt>
      <trkpt lat="45.34106" lon="5.62908">
        <ele>404</ele>
        <time>2021-07-05T11:55:10Z</time>
      </trkpt>
      <trkpt lat="45.34113" lon="5.62892">
        <ele>406</ele>
        <time>2021-07-05T11:55:10Z</time>
      </trkpt>
      <trkpt lat="45.34118" lon="5.62863">
        <ele>408</ele>
        <time>2021-07-05T11:55:10Z</time>
      </trkpt>
      <trkpt lat="45.34118" lon="5.62863">
        <ele>421</ele>
        <time>2021-07-05T11:55:10Z</time>
      </trkpt>
      <trkpt lat="45.34119" lon="5.62824">
        <ele>421</ele>
        <time>2021-07-05T11:55:10Z</time>
      </trkpt>
      <trkpt lat="45.34127" lon="5.62787">
        <ele>422</ele>
        <time>2021-07-05T11:55:10Z</time>
      </trkpt>
      <trkpt lat="45.34131" lon="5.62776">
        <ele>423</ele>
        <time>2021-07-05T11:55:10Z</time>
      </trkpt>
      <trkpt lat="45.34137" lon="5.62767">
        <ele>424</ele>
        <time>2021-07-05T11:55:10Z</time>
      </trkpt>
      <trkpt lat="45.34145" lon="5.62759">
        <ele>425</ele>
        <time>2021-07-05T11:55:10Z</time>
      </trkpt>
      <trkpt lat="45.34155" lon="5.62757">
        <ele>426</ele>
        <time>2021-07-05T11:55:10Z</time>
      </trkpt>
      <trkpt lat="45.34164" lon="5.6275">
        <ele>427</ele>
        <time>2021-07-05T11:55:10Z</time>
      </trkpt>
      <trkpt lat="45.34181" lon="5.6275">
        <ele>427</ele>
        <time>2021-07-05T11:55:10Z</time>
      </trkpt>
      <trkpt lat="45.34193" lon="5.62743">
        <ele>428</ele>
        <time>2021-07-05T11:55:10Z</time>
      </trkpt>
      <trkpt lat="45.34203" lon="5.62732">
        <ele>429</ele>
        <time>2021-07-05T11:55:10Z</time>
      </trkpt>
      <trkpt lat="45.34227" lon="5.62696">
        <ele>430</ele>
        <time>2021-07-05T11:55:10Z</time>
      </trkpt>
      <trkpt lat="45.34265" lon="5.62685">
        <ele>432</ele>
        <time>2021-07-05T11:55:10Z</time>
      </trkpt>
      <trkpt lat="45.34281" lon="5.62673">
        <ele>433</ele>
        <time>2021-07-05T11:55:10Z</time>
      </trkpt>
      <trkpt lat="45.34333" lon="5.62599">
        <ele>435</ele>
        <time>2021-07-05T11:55:10Z</time>
      </trkpt>
      <trkpt lat="45.34354" lon="5.6259">
        <ele>436</ele>
        <time>2021-07-05T11:55:10Z</time>
      </trkpt>
      <trkpt lat="45.34427" lon="5.6259">
        <ele>435</ele>
        <time>2021-07-05T11:55:10Z</time>
      </trkpt>
      <trkpt lat="45.34427" lon="5.6259">
        <ele>435</ele>
        <time>2021-07-05T11:55:10Z</time>
      </trkpt>
      <trkpt lat="45.34389" lon="5.62641">
        <ele>438</ele>
        <time>2021-07-05T11:55:10Z</time>
      </trkpt>
      <trkpt lat="45.34383" lon="5.62659">
        <ele>440</ele>
        <time>2021-07-05T11:55:10Z</time>
      </trkpt>
      <trkpt lat="45.34389" lon="5.6271">
        <ele>444</ele>
        <time>2021-07-05T11:55:10Z</time>
      </trkpt>
      <trkpt lat="45.34388" lon="5.62727">
        <ele>447</ele>
        <time>2021-07-05T11:55:10Z</time>
      </trkpt>
      <trkpt lat="45.34379" lon="5.62763">
        <ele>450</ele>
        <time>2021-07-05T11:55:10Z</time>
      </trkpt>
      <trkpt lat="45.3435" lon="5.62829">
        <ele>456</ele>
        <time>2021-07-05T11:55:10Z</time>
      </trkpt>
      <trkpt lat="45.34326" lon="5.62855">
        <ele>461</ele>
        <time>2021-07-05T11:55:10Z</time>
      </trkpt>
      <trkpt lat="45.34312" lon="5.62865">
        <ele>466</ele>
        <time>2021-07-05T11:55:10Z</time>
      </trkpt>
      <trkpt lat="45.34313" lon="5.62885">
        <ele>470</ele>
        <time>2021-07-05T11:55:10Z</time>
      </trkpt>
      <trkpt lat="45.34318" lon="5.62899">
        <ele>473</ele>
        <time>2021-07-05T11:55:10Z</time>
      </trkpt>
      <trkpt lat="45.34327" lon="5.62912">
        <ele>477</ele>
        <time>2021-07-05T11:55:10Z</time>
      </trkpt>
      <trkpt lat="45.34348" lon="5.62933">
        <ele>480</ele>
        <time>2021-07-05T11:55:10Z</time>
      </trkpt>
      <trkpt lat="45.34358" lon="5.62951">
        <ele>484</ele>
        <time>2021-07-05T11:55:10Z</time>
      </trkpt>
      <trkpt lat="45.34363" lon="5.62965">
        <ele>487</ele>
        <time>2021-07-05T11:55:10Z</time>
      </trkpt>
      <trkpt lat="45.34364" lon="5.62995">
        <ele>490</ele>
        <time>2021-07-05T11:55:10Z</time>
      </trkpt>
      <trkpt lat="45.34451" lon="5.63095">
        <ele>500</ele>
        <time>2021-07-05T11:55:10Z</time>
      </trkpt>
      <trkpt lat="45.34499" lon="5.63187">
        <ele>510</ele>
        <time>2021-07-05T11:55:10Z</time>
      </trkpt>
      <trkpt lat="45.34499" lon="5.63187">
        <ele>536</ele>
        <time>2021-07-05T11:55:10Z</time>
      </trkpt>
      <trkpt lat="45.34516" lon="5.63237">
        <ele>537</ele>
        <time>2021-07-05T11:55:10Z</time>
      </trkpt>
      <trkpt lat="45.34524" lon="5.6323">
        <ele>537</ele>
        <time>2021-07-05T11:55:10Z</time>
      </trkpt>
      <trkpt lat="45.34527" lon="5.63208">
        <ele>537</ele>
        <time>2021-07-05T11:55:10Z</time>
      </trkpt>
      <trkpt lat="45.34536" lon="5.63191">
        <ele>537</ele>
        <time>2021-07-05T11:55:10Z</time>
      </trkpt>
      <trkpt lat="45.34582" lon="5.63135">
        <ele>535</ele>
        <time>2021-07-05T11:55:10Z</time>
      </trkpt>
      <trkpt lat="45.34632" lon="5.63099">
        <ele>533</ele>
        <time>2021-07-05T11:55:10Z</time>
      </trkpt>
      <trkpt lat="45.34632" lon="5.63099">
        <ele>524</ele>
        <time>2021-07-05T11:55:10Z</time>
      </trkpt>
      <trkpt lat="45.34658" lon="5.63082">
        <ele>524</ele>
        <time>2021-07-05T11:55:10Z</time>
      </trkpt>
      <trkpt lat="45.34732" lon="5.63057">
        <ele>521</ele>
        <time>2021-07-05T11:55:10Z</time>
      </trkpt>
      <trkpt lat="45.34818" lon="5.62989">
        <ele>511</ele>
        <time>2021-07-05T11:55:10Z</time>
      </trkpt>
      <trkpt lat="45.34836" lon="5.62982">
        <ele>505</ele>
        <time>2021-07-05T11:55:10Z</time>
      </trkpt>
      <trkpt lat="45.34869" lon="5.62947">
        <ele>499</ele>
        <time>2021-07-05T11:55:10Z</time>
      </trkpt>
      <trkpt lat="45.34882" lon="5.6292">
        <ele>493</ele>
        <time>2021-07-05T11:55:10Z</time>
      </trkpt>
      <trkpt lat="45.34884" lon="5.62903">
        <ele>489</ele>
        <time>2021-07-05T11:55:10Z</time>
      </trkpt>
      <trkpt lat="45.34882" lon="5.62878">
        <ele>485</ele>
        <time>2021-07-05T11:55:10Z</time>
      </trkpt>
      <trkpt lat="45.34876" lon="5.62868">
        <ele>482</ele>
        <time>2021-07-05T11:55:10Z</time>
      </trkpt>
      <trkpt lat="45.3487" lon="5.62861">
        <ele>480</ele>
        <time>2021-07-05T11:55:10Z</time>
      </trkpt>
      <trkpt lat="45.34845" lon="5.6284">
        <ele>477</ele>
        <time>2021-07-05T11:55:10Z</time>
      </trkpt>
      <trkpt lat="45.34826" lon="5.62816">
        <ele>474</ele>
        <time>2021-07-05T11:55:10Z</time>
      </trkpt>
      <trkpt lat="45.3476" lon="5.62651">
        <ele>463</ele>
        <time>2021-07-05T11:55:10Z</time>
      </trkpt>
      <trkpt lat="45.34752" lon="5.626">
        <ele>454</ele>
        <time>2021-07-05T11:55:10Z</time>
      </trkpt>
      <trkpt lat="45.34753" lon="5.62567">
        <ele>448</ele>
        <time>2021-07-05T11:55:10Z</time>
      </trkpt>
      <trkpt lat="45.34796" lon="5.62368">
        <ele>433</ele>
        <time>2021-07-05T11:55:10Z</time>
      </trkpt>
      <trkpt lat="45.34789" lon="5.62332">
        <ele>423</ele>
        <time>2021-07-05T11:55:10Z</time>
      </trkpt>
      <trkpt lat="45.34789" lon="5.62332">
        <ele>398</ele>
        <time>2021-07-05T11:55:10Z</time>
      </trkpt>
      <trkpt lat="45.34779" lon="5.62326">
        <ele>398</ele>
        <time>2021-07-05T11:55:10Z</time>
      </trkpt>
      <trkpt lat="45.34732" lon="5.62321">
        <ele>397</ele>
        <time>2021-07-05T11:55:10Z</time>
      </trkpt>
      <trkpt lat="45.34721" lon="5.62325">
        <ele>396</ele>
        <time>2021-07-05T11:55:10Z</time>
      </trkpt>
      <trkpt lat="45.34689" lon="5.62354">
        <ele>396</ele>
        <time>2021-07-05T11:55:10Z</time>
      </trkpt>
      <trkpt lat="45.34653" lon="5.62371">
        <ele>397</ele>
        <time>2021-07-05T11:55:10Z</time>
      </trkpt>
      <trkpt lat="45.34632" lon="5.62374">
        <ele>398</ele>
        <time>2021-07-05T11:55:10Z</time>
      </trkpt>
      <trkpt lat="45.34613" lon="5.62383">
        <ele>399</ele>
        <time>2021-07-05T11:55:10Z</time>
      </trkpt>
      <trkpt lat="45.34594" lon="5.62365">
        <ele>399</ele>
        <time>2021-07-05T11:55:10Z</time>
      </trkpt>
      <trkpt lat="45.3456" lon="5.62347">
        <ele>399</ele>
        <time>2021-07-05T11:55:10Z</time>
      </trkpt>
      <trkpt lat="45.34494" lon="5.62328">
        <ele>397</ele>
        <time>2021-07-05T11:55:10Z</time>
      </trkpt>
      <trkpt lat="45.34357" lon="5.62391">
        <ele>388</ele>
        <time>2021-07-05T11:55:10Z</time>
      </trkpt>
      <trkpt lat="45.34242" lon="5.62491">
        <ele>381</ele>
        <time>2021-07-05T11:55:10Z</time>
      </trkpt>
      <trkpt lat="45.34242" lon="5.62491">
        <ele>368</ele>
        <time>2021-07-05T11:55:10Z</time>
      </trkpt>
      <trkpt lat="45.34215" lon="5.62524">
        <ele>369</ele>
        <time>2021-07-05T11:55:10Z</time>
      </trkpt>
      <trkpt lat="45.34123" lon="5.62567">
        <ele>370</ele>
        <time>2021-07-05T11:55:10Z</time>
      </trkpt>
      <trkpt lat="45.34107" lon="5.6257">
        <ele>370</ele>
        <time>2021-07-05T11:55:10Z</time>
      </trkpt>
      <trkpt lat="45.34089" lon="5.62581">
        <ele>370</ele>
        <time>2021-07-05T11:55:10Z</time>
      </trkpt>
      <trkpt lat="45.3408" lon="5.62581">
        <ele>369</ele>
        <time>2021-07-05T11:55:10Z</time>
      </trkpt>
      <trkpt lat="45.34049" lon="5.62593">
        <ele>368</ele>
        <time>2021-07-05T11:55:10Z</time>
      </trkpt>
      <trkpt lat="45.34041" lon="5.62594">
        <ele>368</ele>
        <time>2021-07-05T11:55:10Z</time>
      </trkpt>
      <trkpt lat="45.34029" lon="5.62602">
        <ele>368</ele>
        <time>2021-07-05T11:55:10Z</time>
      </trkpt>
      <trkpt lat="45.34021" lon="5.62611">
        <ele>368</ele>
        <time>2021-07-05T11:55:10Z</time>
      </trkpt>
      <trkpt lat="45.34004" lon="5.62654">
        <ele>367</ele>
        <time>2021-07-05T11:55:10Z</time>
      </trkpt>
      <trkpt lat="45.34004" lon="5.62715">
        <ele>367</ele>
        <time>2021-07-05T11:55:10Z</time>
      </trkpt>
      <trkpt lat="45.34" lon="5.62736">
        <ele>366</ele>
        <time>2021-07-05T11:55:10Z</time>
      </trkpt>
      <trkpt lat="45.3398" lon="5.62789">
        <ele>367</ele>
        <time>2021-07-05T11:55:10Z</time>
      </trkpt>
      <trkpt lat="45.33977" lon="5.62801">
        <ele>367</ele>
        <time>2021-07-05T11:55:10Z</time>
      </trkpt>
      <trkpt lat="45.33982" lon="5.62841">
        <ele>369</ele>
        <time>2021-07-05T11:55:10Z</time>
      </trkpt>
      <trkpt lat="45.33982" lon="5.62854">
        <ele>370</ele>
        <time>2021-07-05T11:55:10Z</time>
      </trkpt>
      <trkpt lat="45.33986" lon="5.6287">
        <ele>371</ele>
        <time>2021-07-05T11:55:10Z</time>
      </trkpt>
      <trkpt lat="45.33986" lon="5.6287">
        <ele>378</ele>
        <time>2021-07-05T11:55:10Z</time>
      </trkpt>
      <trkpt lat="45.3398" lon="5.62882">
        <ele>380</ele>
        <time>2021-07-05T11:55:10Z</time>
      </trkpt>
      <trkpt lat="45.33852" lon="5.62966">
        <ele>384</ele>
        <time>2021-07-05T11:55:10Z</time>
      </trkpt>
      <trkpt lat="45.33824" lon="5.62965">
        <ele>388</ele>
        <time>2021-07-05T11:55:10Z</time>
      </trkpt>
      <trkpt lat="45.33804" lon="5.62947">
        <ele>391</ele>
        <time>2021-07-05T11:55:10Z</time>
      </trkpt>
      <trkpt lat="45.33805" lon="5.62928">
        <ele>392</ele>
        <time>2021-07-05T11:55:10Z</time>
      </trkpt>
      <trkpt lat="45.33797" lon="5.62883">
        <ele>391</ele>
        <time>2021-07-05T11:55:10Z</time>
      </trkpt>
      <trkpt lat="45.33785" lon="5.62863">
        <ele>390</ele>
        <time>2021-07-05T11:55:10Z</time>
      </trkpt>
      <trkpt lat="45.33783" lon="5.62842">
        <ele>389</ele>
        <time>2021-07-05T11:55:10Z</time>
      </trkpt>
      <trkpt lat="45.33784" lon="5.62819">
        <ele>388</ele>
        <time>2021-07-05T11:55:10Z</time>
      </trkpt>
      <trkpt lat="45.33771" lon="5.62812">
        <ele>386</ele>
        <time>2021-07-05T11:55:10Z</time>
      </trkpt>
      <trkpt lat="45.3376" lon="5.62768">
        <ele>381</ele>
        <time>2021-07-05T11:55:10Z</time>
      </trkpt>
      <trkpt lat="45.33745" lon="5.6275">
        <ele>374</ele>
        <time>2021-07-05T11:55:10Z</time>
      </trkpt>
      <trkpt lat="45.33744" lon="5.62729">
        <ele>368</ele>
        <time>2021-07-05T11:55:10Z</time>
      </trkpt>
      <trkpt lat="45.33768" lon="5.62692">
        <ele>363</ele>
        <time>2021-07-05T11:55:10Z</time>
      </trkpt>
      <trkpt lat="45.33839" lon="5.62653">
        <ele>357</ele>
        <time>2021-07-05T11:55:10Z</time>
      </trkpt>
      <trkpt lat="45.33864" lon="5.62609">
        <ele>349</ele>
        <time>2021-07-05T11:55:10Z</time>
      </trkpt>
      <trkpt lat="45.33863" lon="5.62557">
        <ele>340</ele>
        <time>2021-07-05T11:55:10Z</time>
      </trkpt>
      <trkpt lat="45.33857" lon="5.62503">
        <ele>332</ele>
        <time>2021-07-05T11:55:10Z</time>
      </trkpt>
      <trkpt lat="45.33857" lon="5.62503">
        <ele>303</ele>
        <time>2021-07-05T11:55:10Z</time>
      </trkpt>
      <trkpt lat="45.33742" lon="5.62352">
        <ele>291</ele>
        <time>2021-07-05T11:55:10Z</time>
      </trkpt>
      <trkpt lat="45.33722" lon="5.62352">
        <ele>283</ele>
        <time>2021-07-05T11:55:10Z</time>
      </trkpt>
      <trkpt lat="45.3371" lon="5.62346">
        <ele>278</ele>
        <time>2021-07-05T11:55:10Z</time>
      </trkpt>
      <trkpt lat="45.3367" lon="5.62299">
        <ele>271</ele>
        <time>2021-07-05T11:55:10Z</time>
      </trkpt>
      <trkpt lat="45.33636" lon="5.62282">
        <ele>264</ele>
        <time>2021-07-05T11:55:10Z</time>
      </trkpt>
      <trkpt lat="45.33628" lon="5.62281">
        <ele>259</ele>
        <time>2021-07-05T11:55:10Z</time>
      </trkpt>
      <trkpt lat="45.33616" lon="5.62282">
        <ele>255</ele>
        <time>2021-07-05T11:55:10Z</time>
      </trkpt>
      <trkpt lat="45.33616" lon="5.62282">
        <ele>238</ele>
        <time>2021-07-05T11:55:10Z</time>
      </trkpt>
      <trkpt lat="45.33608" lon="5.62291">
        <ele>238</ele>
        <time>2021-07-05T11:55:10Z</time>
      </trkpt>
      <trkpt lat="45.33589" lon="5.62358">
        <ele>238</ele>
        <time>2021-07-05T11:55:10Z</time>
      </trkpt>
      <trkpt lat="45.33575" lon="5.62451">
        <ele>237</ele>
        <time>2021-07-05T11:55:10Z</time>
      </trkpt>
      <trkpt lat="45.33569" lon="5.62462">
        <ele>236</ele>
        <time>2021-07-05T11:55:10Z</time>
      </trkpt>
      <trkpt lat="45.3356" lon="5.62461">
        <ele>235</ele>
        <time>2021-07-05T11:55:10Z</time>
      </trkpt>
      <trkpt lat="45.3356" lon="5.62461">
        <ele>231</ele>
        <time>2021-07-05T11:55:10Z</time>
      </trkpt>
      <trkpt lat="45.33526" lon="5.62438">
        <ele>230</ele>
        <time>2021-07-05T11:55:10Z</time>
      </trkpt>
      <trkpt lat="45.33519" lon="5.62396">
        <ele>229</ele>
        <time>2021-07-05T11:55:10Z</time>
      </trkpt>
      <trkpt lat="45.33519" lon="5.62367">
        <ele>229</ele>
        <time>2021-07-05T11:55:10Z</time>
      </trkpt>
      <trkpt lat="45.33516" lon="5.62356">
        <ele>228</ele>
        <time>2021-07-05T11:55:10Z</time>
      </trkpt>
      <trkpt lat="45.33484" lon="5.62337">
        <ele>227</ele>
        <time>2021-07-05T11:55:10Z</time>
      </trkpt>
      <trkpt lat="45.33425" lon="5.62323">
        <ele>224</ele>
        <time>2021-07-05T11:55:10Z</time>
      </trkpt>
      <trkpt lat="45.33425" lon="5.62323">
        <ele>212</ele>
        <time>2021-07-05T11:55:10Z</time>
      </trkpt>
      <trkpt lat="45.33421" lon="5.623">
        <ele>212</ele>
        <time>2021-07-05T11:55:10Z</time>
      </trkpt>
      <trkpt lat="45.3343" lon="5.62264">
        <ele>211</ele>
        <time>2021-07-05T11:55:10Z</time>
      </trkpt>
      <trkpt lat="45.3347" lon="5.62173">
        <ele>210</ele>
        <time>2021-07-05T11:55:10Z</time>
      </trkpt>
      <trkpt lat="45.33472" lon="5.62159">
        <ele>209</ele>
        <time>2021-07-05T11:55:10Z</time>
      </trkpt>
      <trkpt lat="45.33461" lon="5.62134">
        <ele>208</ele>
        <time>2021-07-05T11:55:10Z</time>
      </trkpt>
      <trkpt lat="45.33461" lon="5.62134">
        <ele>205</ele>
        <time>2021-07-05T11:55:10Z</time>
      </trkpt>
      <trkpt lat="45.33413" lon="5.62095">
        <ele>204</ele>
        <time>2021-07-05T11:55:10Z</time>
      </trkpt>
      <trkpt lat="45.33417" lon="5.6208">
        <ele>204</ele>
        <time>2021-07-05T11:55:10Z</time>
      </trkpt>
      <trkpt lat="45.33394" lon="5.62015">
        <ele>203</ele>
        <time>2021-07-05T11:55:10Z</time>
      </trkpt>
      <trkpt lat="45.33386" lon="5.6201">
        <ele>203</ele>
        <time>2021-07-05T11:55:10Z</time>
      </trkpt>
      <trkpt lat="45.33387" lon="5.61996">
        <ele>203</ele>
        <time>2021-07-05T11:55:10Z</time>
      </trkpt>
      <trkpt lat="45.33333" lon="5.61796">
        <ele>201</ele>
        <time>2021-07-05T11:55:10Z</time>
      </trkpt>
      <trkpt lat="45.33324" lon="5.61779">
        <ele>200</ele>
        <time>2021-07-05T11:55:10Z</time>
      </trkpt>
      <trkpt lat="45.33324" lon="5.61779">
        <ele>196</ele>
        <time>2021-07-05T11:55:10Z</time>
      </trkpt>
      <trkpt lat="45.33246" lon="5.6164">
        <ele>196</ele>
        <time>2021-07-05T11:55:10Z</time>
      </trkpt>
      <trkpt lat="45.33243" lon="5.61616">
        <ele>196</ele>
        <time>2021-07-05T11:55:10Z</time>
      </trkpt>
      <trkpt lat="45.33238" lon="5.61593">
        <ele>196</ele>
        <time>2021-07-05T11:55:10Z</time>
      </trkpt>
    </trkseg>
  </trk>
</gpx>